Regional Weather Roundup
Issued by NWS

Home | Current Version | Previous Version | Text Only | Print | Product List | Glossary On
Versions: 1 2 3 4 5 6 7 8 9 10 11 12 13 14 15 16 17 18 19 20 21 22 23 24 25 26 27 28 29 30 31 32 33 34 35 36 37 38 39 40 41 42 43 44 45 46 47 48 49 50
000
ASPQ40 PGUM 010914
RWRPQ
WEATHER ROUNDUP FOR THE MARIANAS AND MICRONESIA
NATIONAL WEATHER SERVICE TIYAN GU
700 PM CHST SAT AUG 01 2015

GUZ001>004-011000-
MARIANA ISLANDS-

CITY           SKY/WX    TMP DP  RH WIND       PRES   REMARKS
GUAM AIRPORT   PTCLDY    82  75  78 N8        29.78R
ANDERSEN AFB   HVY RAIN  81  75  83 VRB6      29.80
ROTA AIRPORT   NOT AVBL
TINIAN AP      NOT AVBL
SAIPAN AP      NOT AVBL

$$

PMZ161-011000-
REPUBLIC OF PALAU-

CITY           SKY/WX    TMP DP  RH WIND       PRES   REMARKS
KOROR AP       LGT RAIN  79  77  94 W12       29.78R
KOROR WSO      LGT RAIN  81  75  83 W10       29.81R

$$

PMZ171>174-011000-
FEDERATED STATES OF MICRONESIA-

CITY           SKY/WX    TMP DP  RH WIND       PRES   REMARKS
YAP AIRPORT    MOCLDY    79  77  94 CALM      29.77R
CHUUK AP       CLOUDY    82  77  83 SW9       29.74S HX  91
POHNPEI AP     NOT AVBL
POHNPEI WSO    CLOUDY    79  77  94 SW3       29.82R
KOSRAE AP      NOT AVBL

$$

PMZ181-011000-
REPUBLIC OF THE MARSHALL ISLANDS-

CITY           SKY/WX    TMP DP  RH WIND       PRES   REMARKS
KWAJALEIN AP   CLEAR     82  77  83 W5        29.79R HX  91
MAJURO AP      NOT AVBL
MAJURO WSO     MOCLDY    82  79  89 CALM      29.79R HX  93

$$



USA.gov is the U.S. government's official web portal to all federal, state and local government web resources and services.